This demonstration page uses our WeatherBlox Daily Observations layout. Learn more.

Left ArrowRight Arrow

39.51506, -84.39828

Hourly Observations for March 25, 2020

Temp ( °F °C ) Dew Point ( °F °C ) Humidity (%) Winds ( mph kmh ) Pressure ( in mb ) Visibility ( mi km ) Precip ( " mm )
12:15 am 00:15 Cloudy with Light Rain 43 6.2 41 5.1 93 93 NE 7 11 29.92 1013 7 11.26538 0 0
12:35 am 00:35 Cloudy with Light Rain 43 6.2 42 5.3 94 94 NNE 7 11 29.92 1013 7 11.26538 0 0
12:55 am 00:55 Cloudy with Light Rain 43 6.1 41 5.2 94 94 NNE 9 15 29.91 1013 7 11.26538 0 0
1:15 am 01:15 Cloudy with Light Rain 43 6.1 41 5.1 93 93 N 8 13 29.91 1013 7 11.26538 0 0
1:35 am 01:35 Cloudy with Mist and Fog 43 6 41 5 93 93 N 9 15 29.92 1013 7 11.26538 0 0
1:55 am 01:55 Partly Cloudy with Mist and Fog 42 5.8 41 4.8 93 93 N 9 15 29.92 1013 7 11.26538 0 0
2:15 am 02:15 Partly Cloudy with Mist and Fog 42 5.4 40 4.6 95 95 N 8 13 29.92 1013 5 8.0467 0 0
2:35 am 02:35 Clear with Mist and Fog 42 5.3 40 4.4 94 94 N 9 15 29.92 1013 7 11.26538 0 0
2:55 am 02:55 Cloudy with Mist and Fog 42 5.3 40 4.4 94 94 N 7 11 29.92 1013 5 8.0467 0 0
3:15 am 03:15 Cloudy with Mist and Fog 42 5.4 40 4.4 93 93 N 8 13 29.92 1013 5 8.0467 0 0
3:35 am 03:35 Cloudy with Mist and Fog 42 5.5 40 4.4 93 93 N 10 17 29.91 1013 5 8.0467 0 0
3:55 am 03:55 Cloudy with Mist and Fog 42 5.4 40 4.3 93 93 N 9 15 29.91 1013 5 8.0467 0 0
4:15 am 04:15 Cloudy with Mist and Fog 42 5.4 40 4.2 92 92 N 9 15 29.92 1013 5 8.0467 0 0
4:35 am 04:35 Cloudy with Mist and Fog 41 5.2 39 4.1 93 93 N 9 15 29.92 1013 5 8.0467 0 0
4:55 am 04:55 Cloudy with Mist and Fog 41 5 39 3.9 93 93 N 6 9 29.92 1013 5 8.0467 0 0
5:15 am 05:15 Cloudy with Mist and Fog 41 4.8 38 3.6 92 92 N 5 7 29.93 1014 5 8.0467 0 0
5:35 am 05:35 Cloudy with Mist and Fog 40 4.5 38 3.4 93 93 N 5 7 29.94 1014 5 8.0467 0 0
5:55 am 05:55 Mostly Cloudy with Mist and Fog 39 4.1 38 3.1 93 93 N 3 6 29.94 1014 5 8.0467 0 0
6:15 am 06:15 Clear with Mist and Fog 38 3.5 37 2.8 95 95 N 6 9 29.96 1014 5 8.0467 0 0
6:35 am 06:35 Clear with Mist and Fog 38 3.1 36 2.3 95 95 N 5 7 29.97 1015 5 8.0467 0 0
6:55 am 06:55 Clear with Mist and Fog 37 2.9 36 2.1 95 95 N 3 6 29.98 1015 5 8.0467 0 0
7:15 am 07:15 Clear with Mist and Fog 37 2.6 35 1.8 95 95 N 3 6 29.99 1016 5 8.0467 0 0
7:35 am 07:35 Sunny with Mist and Fog 36 2.3 35 1.7 96 96 NNE 5 7 29.99 1016 4 6.43736 0 0
7:55 am 07:55 Sunny with Mist and Fog 36 2.3 35 1.7 96 96 N 3 6 30 1016 4 6.43736 0 0
8:15 am 08:15 Partly Cloudy with Mist and Fog 36 2.4 35 1.7 95 95 Calm 30.01 1016 3.5 5.63269 0 0
8:35 am 08:35 Cloudy with Mist and Fog 36 2.1 35 1.7 97 97 N 5 7 30.02 1017 2 3.21868 0 0
8:55 am 08:55 Cloudy with Mist and Fog 36 2.4 36 2.1 98 98 Calm 30.03 1017 1.75 2.816345 0 0
9:15 am 09:15 Cloudy with Mist and Fog 37 2.8 37 2.5 98 98 N 3 6 30.04 1017 2 3.21868 0 0
9:35 am 09:35 Cloudy with Mist and Fog 37 3 37 2.6 97 97 NNW 6 9 30.04 1017 2 3.21868 0 0
9:55 am 09:55 Cloudy with Mist and Fog 38 3.2 37 2.8 97 97 NNE 6 9 30.04 1017 2 3.21868 0 0
10:15 am 10:15 Cloudy with Mist and Fog 40 4.2 38 3.5 95 95 NNE 7 11 30.03 1017 3.5 5.63269 0 0
10:35 am 10:35 Mostly Cloudy with Mist and Fog 39 4.1 38 3.1 93 93 NNE 6 9 30.02 1017 4 6.43736 0 0
10:55 am 10:55 Partly Cloudy with Mist and Fog 41 5.1 39 3.9 92 92 ENE 3 6 30.03 1017 5 8.0467 0 0
11:15 am 11:15 Sunny with Mist and Fog 43 6.3 40 4.3 87 87 ENE 3 6 30.03 1017 5 8.0467 0 0
11:35 am 11:35 Sunny 45 7.4 40 4.7 83 83 ENE 6 9 30.03 1017 7 11.26538 0 0
11:55 am 11:55 Sunny 47 8.6 41 5.1 79 79 E 5 7 30.02 1017 10 16.0934 0 0
12:15 pm 12:15 Sunny 49 9.4 42 5.4 76 76 NE 5 7 30.01 1016 10 16.0934 0 0
12:35 pm 12:35 Sunny 51 10.4 43 5.9 74 74 NE 6 9 30.02 1017 10 16.0934 0 0
12:55 pm 12:55 Sunny 53 11.4 42 5.8 69 69 NE 3 6 30.02 1016 10 16.0934 0 0
1:15 pm 13:15 Sunny 55 12.7 42 5.6 62 62 Calm 30 1016 10 16.0934 0 0
1:35 pm 13:35 Sunny 56 13.5 43 6.3 62 62 S 5 7 30 1016 10 16.0934 0 0
1:55 pm 13:55 Sunny 57 13.9 43 6.3 60 60 Calm 30 1016 10 16.0934 0 0
2:15 pm 14:15 Sunny 58 14.5 42 5.7 56 56 Calm 29.99 1016 10 16.0934 0 0
2:35 pm 14:35 Sunny 59 15.2 44 6.4 56 56 SSW 5 7 29.99 1015 10 16.0934 0 0
2:55 pm 14:55 Sunny 59 15.1 43 5.9 54 54 Calm 29.98 1015 10 16.0934 0 0
3:15 pm 15:15 Sunny 61 16 42 5.6 50 50 S 3 6 29.97 1015 10 16.0934 0 0
3:35 pm 15:35 Sunny 61 16.3 40 4.3 45 45 S 9 15 29.96 1015 10 16.0934 0 0
3:55 pm 15:55 Sunny 62 16.6 39 4.1 44 44 SSW 7 11 29.96 1015 10 16.0934 0 0
4:15 pm 16:15 Sunny 63 17 40 4.4 43 43 SW 6 9 29.96 1015 10 16.0934 0 0
4:35 pm 16:35 Sunny 63 17.1 41 5.1 45 45 SSE 9 15 29.95 1014 10 16.0934 0 0
4:55 pm 16:55 Sunny 63 17.1 41 5.1 45 45 SW 3 6 29.95 1014 10 16.0934 0 0
5:15 pm 17:15 Sunny 63 17.1 40 4.6 44 44 S 3 6 29.94 1014 10 16.0934 0 0
5:35 pm 17:35 Sunny 64 17.5 41 4.8 43 43 SW 7 11 29.94 1014 10 16.0934 0 0
5:55 pm 17:55 Sunny 64 17.5 40 4.7 43 43 S 6 9 29.93 1014 10 16.0934 0 0
6:15 pm 18:15 Sunny 63 17 38 3.1 40 40 Calm 29.92 1013 10 16.0934 0 0
6:35 pm 18:35 Sunny 63 17 38 3.3 40 40 Calm 29.92 1013 10 16.0934 0 0
6:55 pm 18:55 Sunny 62 16.9 39 3.9 42 42 SW 3 6 29.93 1014 10 16.0934 0 0
7:15 pm 19:15 Sunny 62 16.4 38 3.2 41 41 SW 6 9 29.93 1014 10 16.0934 0 0
7:35 pm 19:35 Sunny 60 15.3 37 3 44 44 WSW 5 7 29.95 1014 10 16.0934 0 0
7:55 pm 19:55 Sunny 56 13.6 38 3.2 50 50 Calm 29.94 1014 10 16.0934 0 0
8:15 pm 20:15 Clear 55 12.8 39 4.1 56 56 Calm 29.95 1014 10 16.0934 0 0
8:35 pm 20:35 Clear 51 10.4 42 5.8 73 73 Calm 29.96 1014 10 16.0934 0 0
8:55 pm 20:55 Clear 50 10.2 42 5.6 73 73 Calm 29.97 1015 10 16.0934 0 0
9:15 pm 21:15 Clear 46 7.9 41 5.1 83 83 Calm 29.97 1015 10 16.0934 0 0
9:35 pm 21:35 Clear 46 7.8 41 4.8 82 82 Calm 29.98 1015 10 16.0934 0 0
9:55 pm 21:55 Clear 45 7 41 5 87 87 Calm 29.99 1015 10 16.0934 0 0
10:15 pm 22:15 Clear 44 6.6 40 4.5 87 87 Calm 30 1016 10 16.0934 0 0
10:35 pm 22:35 Clear 45 7.4 40 4.5 82 82 Calm 29.99 1015 10 16.0934 0 0
10:55 pm 22:55 Clear 44 6.7 40 4.2 84 84 Calm 29.99 1015 10 16.0934 0 0
11:15 pm 23:15 Clear 44 6.4 40 4.3 87 87 Calm 29.98 1015 10 16.0934 0 0
11:35 pm 23:35 Clear 43 5.9 39 4 88 88 Calm 29.99 1016 10 16.0934 0 0
11:55 pm 23:55 Clear 42 5.6 39 4.1 90 90 Calm 29.99 1016 10 16.0934 0 0

Powered by AerisWeather